Погода в Елабуге

Погода в Елабуге : погода сейчас, прогноз погоды и архив. Всё, что Вы хотите узнать о погоде в Елабуге!

Поиск расширенной информации на нашем сайте:

Другие новости

Новости СМИ2

Главная страница сайта

Новости сайта

03.07.2017

Напоминаем, что на нашем специализированном сайте Метеоцентр.Азия вы можете получить высокодетализированные автоматические прогнозы погоды по пунктам России, СНГ и мира в авиационном формате (включающие направление и скорость ветра, видимость, явления погоды, количество и форму облачности, нижнюю и верхнюю границу облачности).

Рекомендуем: http://teplo-dim.com/ купити електрокамін у львові - каміни електричні електрокаміни.

Погода в Елабуге - сегодня

Время (UTC), дата Ветер
(°,м/с) 
Видим.   Явления Облачность Т
(°С)
Тd
(°С)
f(%) Тe
(°С)
Pmin
(гПа)
dP
(гПа)
Po
(мм)
O2
(г/м3)
Тmin Tmax R s Состояние
почвы
18 14.04.18 030 (СВ) 20000 м    10/3 600 м кучево-дожд., средняя, верхняя 
[Cb cap|Ac trans|Ci fib]
+0.1 -7.5 57 -2  1008.2  -1  750  303           
03 15.04.18 030 (СВ) 4{12}  20000 м    8/0 верхняя 
[Ci fib]
+8 -7.5 32 +7  1006.3  -1.4  749  294           
06 15.04.18 030 (СВ) 20000 м    8/0 верхняя 
[Ci fib]
+9.3 -7.6 29 +8  1005.2  -1.1  748  292           
12 15.04.18 040 (СВ) 20000 м    1/0 верхняя 
[Ci fib]
+3.2 -8.9 41 +4  1007.6  1.7  750  300           
15 15.04.18 250 (З) 20000 м    5/0 верхняя 
[Ci fib]
+0.8 -8.5 50 +1  1008.4  0.7  750  302           
18 15.04.18 тихо ()   20000 м    3/0 верхняя 
[Ci fib]
+1.2 -9.3 45 +1  1008.4  0.1  751  302           
00 16.04.18 190 (Ю) 20000 м    ясно 
+7.2 -5.8 39 +6  1009.1  0.2  751  295           
03 16.04.18 260 (З) 20000 м    3/0 средняя, верхняя 
[Ac trans|Ci fib]
+11.5 -4.4 33 +11  1008.1  -0.9  750  291           
06 16.04.18 250 (З) 20000 м    1/1 1000 м 
[Cu hum]
+13.5 -7.7 22 +13  1006.9  -1.2  750  289           
12 16.04.18 200 (Ю) 20000 м    ясно 
+9.2 -4.9 37 +8  1009.1  2.1  751  293           
15 16.04.18 240 (ЮЗ) 4{11}  20000 м    3/0 верхняя 
[Ci fib]
+9.2 -4.5 38 +8  1010  0.8  752  294           
18 16.04.18 170 (Ю) 20000 м    ясно 
+6.6 -5.6 41 +6  1010.6  0.5  752  297           
00 17.04.18 180 (Ю) 5{11}  20000 м    1/0 средняя 
[Ac trans]
+11.6 -4.6 32 +11  1010.1  -1  752  291           
03 17.04.18 210 (ЮЗ) 4{11}  20000 м    10/0 средняя, верхняя 
[Ac trans|Ci sp]
+15.2 -4.8 25 +15  1008.4  -1.6  751  287           
12 17.04.18 220 (ЮЗ) 20000 м    10/3 1000 м средняя, верхняя 
[Sc|Ac trans|Ci fib]
+13.9 +1.8 44 +14  1007.1  0.9  750  287           
15 17.04.18 180 (Ю) 20000 м    5/0 верхняя 
[Ci fib]
+10.5 +1.4 53 +10  1007.3  0.1  750  291           
18 17.04.18 190 (Ю) 20000 м    10/0 верхняя 
[Ci fib]
+11.7 -1.4 40 +11  1006.3  -0.9  749  290           
00 18.04.18 тихо ()   10 км  слаб. ливневой дождь  9/6 600 м кучево-дожд., средняя 
[Cb cap|Ac trans]
+8.4 -0.3 54 +8  1008.4  1.2  751  293           
06 18.04.18 250 (З) 10 км  {ливн. осадки}  3/0 верхняя 
[Ci fib]
+16.7 +3.4 41 +17  1005.4  -1.4  749  284           
12 18.04.18 160 (Ю) 20000 м    1/0 средняя 
[Ac trans]
+11.3 +2.9 56 +12  1005.9  0.7  749  289           
15 18.04.18 тихо ()   20000 м    ясно 
+5.6 +1.7 76 +6  1006.9  0.8  749  296           
18 18.04.18 030 (СВ) 20000 м    ясно 
+2.2 +1.2 93 +3  1007.4  0.5  750  299           
00 19.04.18 040 (СВ) 1000 м  дымка{туман}  10/0 верхняя 
[Ci fib]
+4.1 +3.5 96 +4  1009.7  1.2  752  298           
03 19.04.18 310 (СЗ) 20000 м    10/0 верхняя 
[Ci fib]
+13.7 +4.5 54 +14  1008.7  -0.7  751  287           
06 19.04.18 300 (СЗ) 20000 м    10/0 средняя, верхняя 
[Ac trans|Ci fib]
+16.8 +3.3 40 +18  1007  -1.6  750  284           
Время (UTC), дата Ветер
(°,м/с) 
Видим.   Явления Облачность Т
(°С)
Тd
(°С)
f(%) Тe
(°С)
Pmin
(гПа)
dP
(гПа)
Po
(мм)
O2
(г/м3)
Тmin Tmax R s Состояние
почвы

Для получения пояснительной информации подведите курсор к названию столбца.

ПОГОДА в Елабуге - архив

Всё, что Вы хотите узнать о погоде в Елабуге - удобно и подробно!

Выберите нужную дату (начиная с 1 января 2015* года) и нажмите кнопку "Найти".
Будут отображены архивные сводки погоды по пункту Елабуга, начиная с указанной даты.


Отображать данные в формате CSV (для использования в таблицах Excel)


Внимание! Наш архив погоды предназначен исключительно для личного некоммерческого использования в познавательных целях. Если Вам необходимы официальные справки о состоянии погоды (для производственных, юридических, коммерческих и т.п. целей), обращайтесь в органы Росгидромета.

*Примечание: данная дата относится к архиву по метеостанциям СССР (Россия, СНГ, Балтия).
Архив по метеостанциям Зарубежной Европы и Азии (кроме Китая) хранится 10 дней, по другим регионам земного шара (Китай, Африка, Америка, Австралия, Океания) - 1 день.

Елабуга - район местоположения метеостанции


Название, широта, долгота, высота метеостанции:
Елабуга 48.8°ш. 135.9°д. 58 м над ур. моря [Российская Федерация]

Дополнительная информация

В oтличие oт бoльшинства пoгoдных сайтoв мы публикуем пoдрoбную метеoинфoрмацию в детальнoм прoфессиoнальнoм фoрмате.

Характеристики температуры и влажнoсти вoздуха измеряются на высoте 2 м в тени вдали oт зданий и деревьев.
Скoрoсть ветра измеряется на высoте 10 м (на урoвне рoста челoвека скoрoсть ветра ниже в 1.5-2 раза). Если метеoстанция нахoдится в гoрoде или в лесу, тo скoрoсть ветра занижена на 2-4 м/с пo сравнению с oткрытым местoм. Скoрoсть ветра над акватoриями крупных рек и oзёр, а также на вершинах хoлмoв на 2-5 м/с выше, чем в oбычных услoвиях.
Атмoсфернoе давление в разных тoчках местнoсти мoжет значительнo oтличаться oт давления на метеoстанции, в зависимoсти oт услoвий рельефа (при пoдъёме на 10 м давление пoнижается примернo на 1 мм рт.ст.).